Weather History for PATO - November, 2012

Change the Weather History Date:

Friday, November 2, 2012

  Actual Average Record
Temperature  
Mean Temperature 24 °F -  
Max Temperature 39 °F - - ()
Min Temperature 12 °F - - ()
Degree Days  
Heating Degree Days 40    
Moisture  
Dew Point 21 °F    
Average Humidity 90    
Maximum Humidity 100    
Minimum Humidity 70    
Precipitation  
Precipitation 0.71 in - - ()
Sea Level Pressure  
Sea Level Pressure 29.41 in    
Wind  
Wind Speed 3 mph (SE)    
Max Wind Speed 22 mph    
Max Gust Speed 36 mph    
Visibility 4 miles    
Events Fog , Rain , Snow    
T = Trace of Precipitation, MM = Missing Value Source: NWS Daily Summary

Daily Weather History Graph

Daily Weather History Graph

Search for Another Location

Airport or City:

Trip Planner

Search our weather history database for the weather conditions in past years. The results will help you decide how hot, cold, wet, or windy it might be!

Date:

Astronomy

Nov. 02, 2012 Rise Set
Actual Time 9:25 AM AKDT 5:51 PM AKDT
Civil Twilight 8:38 AM AKDT 6:38 PM AKDT
Nautical Twilight 7:47 AM AKDT 7:28 PM AKDT
Astronomical Twilight 6:58 AM AKDT 8:18 PM AKDT
Moon 8:08 PM AKDT (11/2) 1:33 PM AKDT (11/2)
Length of Visible Light 9h 59m
Length of Day
8h 25m
Waning Gibbous, 86% of the Moon is Illuminated
Nov 2
Waning Gibbous
Nov 6
Last Quarter
Nov 13
New
Nov 20
First Quarter
Nov 28
Full

Hourly Weather History & Observations

Time (AKDT) Temp. Windchill Dew Point Humidity Pressure Visibility Wind Dir Wind Speed Gust Speed Precip Events Conditions
12:00 AM 14.0 °F 8.2 °F 14.0 °F 100% 29.66 in 0.8 mi WSW 3.5 mph - N/A   Mist
12:04 AM 14.0 °F - 14.0 °F 100% 29.65 in 1.2 mi Calm Calm - N/A   Overcast
12:14 AM 15.1 °F - 14.0 °F 95% 29.65 in 0.5 mi Calm Calm - N/A Fog Light Freezing Fog
12:22 AM 15.1 °F - 14.0 °F 95% 29.64 in 0.2 mi Calm Calm - N/A Fog Light Freezing Fog
12:36 AM 15.1 °F - 10.0 °F 80% 29.63 in 0.5 mi Calm Calm - N/A   Haze
12:43 AM 15.1 °F - 10.0 °F 80% 29.63 in 2.5 mi Calm Calm - N/A   Haze
12:53 AM 16.0 °F - 10.0 °F 77% 29.63 in 1.0 mi Calm Calm - N/A   Haze
1:13 AM 15.1 °F 9.4 °F 9.0 °F 77% 29.61 in 0.5 mi South 3.5 mph - N/A   Haze
1:19 AM 16.0 °F - 8.1 °F 71% 29.61 in 2.5 mi Calm Calm - N/A   Haze
1:26 AM 15.1 °F - 8.1 °F 74% 29.61 in 3.0 mi Calm Calm - N/A   Haze
1:28 AM 15.1 °F - 7.0 °F 70% 29.60 in 1.5 mi Calm Calm - N/A   Haze
1:36 AM 15.1 °F - 7.0 °F 70% 29.60 in 0.5 mi Calm Calm - N/A   Haze
1:53 AM 16.0 °F - 10.9 °F 81% 29.60 in 0.5 mi Calm Calm - N/A   Haze
2:06 AM 16.0 °F - 12.0 °F 84% 29.59 in 1.0 mi Calm Calm - N/A   Mist
2:14 AM 16.0 °F - 12.0 °F 84% 29.59 in 3.0 mi Calm Calm - N/A   Overcast
2:53 AM 16.0 °F - 15.1 °F 96% 29.57 in 10.0 mi Calm Calm - N/A   Partly Cloudy
3:53 AM 12.9 °F - 12.0 °F 96% 29.54 in 10.0 mi Calm Calm - N/A   Partly Cloudy
4:15 AM 14.0 °F - 12.0 °F 92% 29.52 in 10.0 mi Calm Calm - N/A   Mostly Cloudy
4:42 AM 15.1 °F 9.4 °F 12.9 °F 91% 29.51 in 10.0 mi WSW 3.5 mph - N/A   Scattered Clouds
4:53 AM 15.1 °F - 14.0 °F 95% 29.51 in 10.0 mi Calm Calm - N/A   Partly Cloudy
5:11 AM 15.1 °F - 14.0 °F 95% 29.49 in 10.0 mi Calm Calm - N/A   Mostly Cloudy
5:53 AM 15.1 °F - 14.0 °F 95% 29.47 in 10.0 mi Calm Calm - N/A   Scattered Clouds
6:13 AM 15.1 °F - 14.0 °F 95% 29.46 in 10.0 mi Calm Calm - N/A   Mostly Cloudy
6:53 AM 16.0 °F - 15.1 °F 96% 29.44 in 10.0 mi Calm Calm - N/A   Overcast
7:17 AM 17.1 °F 11.7 °F 16.0 °F 96% 29.42 in 10.0 mi SE 3.5 mph - N/A   Overcast
7:53 AM 18.0 °F - 17.1 °F 96% 29.40 in 10.0 mi Calm Calm - N/A   Overcast
8:53 AM 19.0 °F - 18.0 °F 96% 29.36 in 10.0 mi Calm Calm - N/A   Overcast
9:53 AM 19.0 °F - 18.0 °F 96% 29.35 in 10.0 mi Calm Calm - N/A   Overcast
10:53 AM 19.9 °F - 19.0 °F 96% 29.34 in 6.0 mi Calm Calm - 0.00 in Snow Light Snow
11:53 AM 21.0 °F - 19.9 °F 96% 29.33 in 4.0 mi Calm Calm - 0.00 in Snow Light Snow
12:04 PM 21.0 °F - 19.9 °F 96% 29.32 in 1.8 mi Calm Calm - 0.00 in Snow Light Snow
12:19 PM 21.9 °F - 19.9 °F 92% 29.31 in 0.5 mi Calm Calm - 0.00 in Fog , Snow Snow
12:53 PM 21.9 °F - 21.0 °F 96% 29.30 in 0.5 mi Calm Calm - 0.02 in Fog , Snow Snow
1:10 PM 21.9 °F - 21.0 °F 96% 29.28 in 0.5 mi Calm Calm - 0.01 in Fog , Snow Snow
1:42 PM 23.0 °F - 21.9 °F 96% 29.26 in 1.0 mi Calm Calm - 0.04 in Snow Light Snow
1:53 PM 23.0 °F - 21.9 °F 96% 29.27 in 0.5 mi Calm Calm - 0.04 in Fog , Snow Snow
2:25 PM 23.0 °F - 21.9 °F 96% 29.25 in 1.0 mi Calm Calm - 0.03 in Snow Light Snow
2:53 PM 24.1 °F - 23.0 °F 96% 29.25 in 1.0 mi Calm Calm - 0.06 in Snow Light Snow
3:04 PM 24.1 °F - 23.0 °F 96% 29.24 in 0.8 mi Calm Calm - 0.02 in Snow Light Snow
3:27 PM 24.1 °F 19.7 °F 23.0 °F 96% 29.24 in 1.0 mi Variable 3.5 mph - 0.05 in Snow Light Snow
3:47 PM 24.8 °F 17.9 °F 24.8 °F 100% 29.24 in 2.0 mi NW 5.8 mph - 0.08 in   Overcast
3:53 PM 25.0 °F - 25.0 °F 100% 29.25 in 2.5 mi North - - 0.08 in   Overcast
3:59 PM 26.1 °F - 25.0 °F 96% 29.25 in 2.5 mi North - - 0.01 in Rain Light Freezing Rain
4:15 PM 37.0 °F 26.2 °F 32.0 °F 82% 29.24 in 5.0 mi ENE 21.9 mph 35.7 mph 0.02 in Rain Light Freezing Rain
4:22 PM 37.0 °F 27.7 °F 32.0 °F 82% 29.25 in 4.0 mi ESE 16.1 mph 35.7 mph 0.03 in Rain Light Rain
4:53 PM 37.9 °F 28.5 °F 32.0 °F 79% 29.27 in 3.0 mi SE 17.3 mph 34.5 mph 0.07 in Rain Rain
5:53 PM 37.0 °F 28.5 °F 34.0 °F 89% 29.29 in 5.0 mi ESE 13.8 mph 35.7 mph 0.06 in Rain Rain
6:53 PM 37.9 °F - 33.1 °F 83% 29.30 in 5.0 mi North - - 0.05 in Rain Light Rain
7:53 PM 37.9 °F 27.9 °F 33.1 °F 83% 29.31 in 3.0 mi East 19.6 mph 31.1 mph 0.08 in Rain Rain
8:00 PM 37.9 °F 30.0 °F 34.0 °F 86% 29.30 in 2.5 mi ESE 12.7 mph 31.1 mph 0.02 in Rain Rain
8:21 PM 36.0 °F 25.6 °F 33.1 °F 89% 29.32 in 1.8 mi East 18.4 mph 32.2 mph 0.13 in Rain Heavy Rain
8:28 PM 37.0 °F 27.4 °F 33.1 °F 86% 29.33 in 2.0 mi East 17.3 mph 31.1 mph 0.15 in Rain Rain
8:38 PM 37.0 °F 28.1 °F 33.1 °F 86% 29.33 in 6.0 mi ESE 15.0 mph 31.1 mph 0.16 in Rain Light Rain
8:41 PM 37.0 °F 27.7 °F 33.1 °F 86% 29.33 in 8.0 mi East 16.1 mph 31.1 mph 0.16 in Rain Light Rain
8:53 PM 37.0 °F 29.8 °F 33.1 °F 86% 29.34 in 6.0 mi ESE 10.4 mph 23.0 mph 0.16 in Rain Light Rain
9:53 PM 36.0 °F 29.6 °F 34.0 °F 93% 29.34 in 4.0 mi SSE 8.1 mph 24.2 mph 0.04 in Rain Rain
10:26 PM 37.0 °F 28.9 °F 34.0 °F 89% 29.33 in 9.0 mi SE 12.7 mph 21.9 mph 0.02 in Rain Light Rain
10:51 PM 37.4 °F 31.4 °F 33.8 °F 87% 29.33 in 7.0 mi SE 8.1 mph 20.7 mph 0.03 in Rain Light Rain
10:53 PM 37.0 °F 29.3 °F 34.0 °F 89% 29.33 in 8.0 mi SE 11.5 mph 20.7 mph 0.03 in Rain Light Rain
11:02 PM 37.0 °F 31.6 °F 34.0 °F 89% 29.33 in 10.0 mi SE 6.9 mph 18.4 mph 0.01 in Rain Light Rain
11:53 PM 39.0 °F 32.3 °F 33.1 °F 79% 29.34 in 8.0 mi SE 10.4 mph 19.6 mph 0.02 in Rain Light Rain